User: anonymous   Login
Location: Brno
(49.2000°N, 16.6330°E)
Time: 09:41:32
(UTC+01:00)
Language:

RESURS DK-1 - Orbit

View from above orbital plane
View from above orbital plane
View from above satellite
View from above satellite

Ground track
Ground track

The orbit data is extracted from the following two-line orbital elements,

1 29228U 06021A   17019.20937961  .00000108  00000-0  15661-4 0  9999
2 29228  69.9362 117.0871 0006884 233.7945 126.2580 15.02077153585737
Epoch (UTC): 19 January 2017 05:01:30
Eccentricity: 0.0006884
inclination: 69.9362°
perigee height: 556 km
apogee height: 565 km
right ascension of ascending node: 117.0871°
argument of perigee: 233.7945°
revolutions per day: 15.02077153
mean anomaly at epoch: 126.2580°
orbit number at epoch: 58573

The dashed part of the orbit path shows where the satellite is in the earth's shadow,  

DLR